Stündliche Wetter Celbowko

Heute, 16 Januar, Samstag

Zeit Temperatur Niederschläge Wind Luftdruck Luftfeuchtigkeit
00:00 -5°C° 0.2 mm 6 m/S 763 mmHg 87%
01:00 -5°C° 0.2 mm 6 m/S 763 mmHg 89%
02:00 -4°C° 0.2 mm 6 m/S 763 mmHg 87%
03:00 -4°C° 0.2 mm 7 m/S 762 mmHg 86%
04:00 -4°C° 0.2 mm 7 m/S 762 mmHg 85%
05:00 -5°C° 0.1 mm 8 m/S 762 mmHg 85%
06:00 -6°C° 0.1 mm 8 m/S 761 mmHg 84%
07:00 -6°C° 0.1 mm 9 m/S 761 mmHg 83%
08:00 -7°C° 0.2 mm 10 m/S 760 mmHg 87%
09:00 -7°C° 0.2 mm 10 m/S 760 mmHg 90%
10:00 -6°C° 0.2 mm 11 m/S 759 mmHg 93%
11:00 -5°C° 0.8 mm 10 m/S 759 mmHg 94%
12:00 -5°C° 0.8 mm 9 m/S 759 mmHg 95%
13:00 -4°C° 0.8 mm 8 m/S 759 mmHg 96%
14:00 -5°C° 0.2 mm 8 m/S 759 mmHg 92%
15:00 -6°C° 0.2 mm 8 m/S 759 mmHg 88%
16:00 -6°C° 0.2 mm 7 m/S 759 mmHg 84%
17:00 -7°C° 0 mm 7 m/S 760 mmHg 84%
18:00 -6°C° 0 mm 6 m/S 760 mmHg 85%
19:00 -8°C° 0 mm 6 m/S 761 mmHg 85%
20:00 -8°C° 0 mm 6 m/S 761 mmHg 85%
21:00 -8°C° 0 mm 6 m/S 761 mmHg 85%
22:00 -7°C° 0 mm 5 m/S 762 mmHg 85%
23:00 -8°C° 0 mm 5 m/S 762 mmHg 86%

Morgen, 17 Januar, Sonntag

Zeit Temperatur Niederschläge Wind Luftdruck Luftfeuchtigkeit
00:00 -9°C° 0 mm 4 m/S 762 mmHg 86%
01:00 -10°C° 0 mm 4 m/S 762 mmHg 87%
02:00 -11°C° 0 mm 4 m/S 762 mmHg 89%
03:00 -12°C° 0 mm 3 m/S 762 mmHg 90%
04:00 -13°C° 0 mm 3 m/S 762 mmHg 92%
05:00 -14°C° 0 mm 3 m/S 763 mmHg 92%
06:00 -14°C° 0 mm 3 m/S 763 mmHg 91%
07:00 -14°C° 0 mm 3 m/S 763 mmHg 91%
08:00 -13°C° 0 mm 2 m/S 763 mmHg 89%
09:00 -13°C° 0 mm 2 m/S 764 mmHg 87%
10:00 -12°C° 0 mm 2 m/S 764 mmHg 85%
11:00 -12°C° 0 mm 2 m/S 764 mmHg 82%
12:00 -10°C° 0 mm 2 m/S 764 mmHg 79%
13:00 -9°C° 0 mm 2 m/S 764 mmHg 77%
14:00 -10°C° 0 mm 2 m/S 764 mmHg 78%
15:00 -10°C° 0 mm 2 m/S 764 mmHg 79%
16:00 -12°C° 0 mm 2 m/S 764 mmHg 81%
17:00 -12°C° 0 mm 2 m/S 764 mmHg 80%
18:00 -13°C° 0 mm 2 m/S 764 mmHg 79%
19:00 -13°C° 0 mm 2 m/S 765 mmHg 78%
20:00 -13°C° 0 mm 2 m/S 765 mmHg 79%
21:00 -14°C° 0 mm 3 m/S 765 mmHg 80%
22:00 -14°C° 0 mm 3 m/S 765 mmHg 81%
23:00 -14°C° 0 mm 3 m/S 765 mmHg 81%

übermorgen, 18 Januar, Montag

Zeit Temperatur Niederschläge Wind Luftdruck Luftfeuchtigkeit
00:00 -14°C° 0 mm 3 m/S 765 mmHg 82%
01:00 -14°C° 0 mm 3 m/S 765 mmHg 83%
02:00 -14°C° 0 mm 3 m/S 764 mmHg 82%
03:00 -14°C° 0 mm 3 m/S 764 mmHg 81%
04:00 -14°C° 0 mm 3 m/S 764 mmHg 80%
05:00 -14°C° 0 mm 3 m/S 764 mmHg 79%
06:00 -14°C° 0 mm 3 m/S 764 mmHg 78%
07:00 -14°C° 0 mm 3 m/S 764 mmHg 77%
08:00 -14°C° 0 mm 3 m/S 764 mmHg 77%
09:00 -13°C° 0 mm 3 m/S 764 mmHg 76%
10:00 -12°C° 0 mm 4 m/S 764 mmHg 75%
11:00 -12°C° 0 mm 4 m/S 763 mmHg 75%
12:00 -11°C° 0 mm 4 m/S 763 mmHg 74%
13:00 -10°C° 0 mm 4 m/S 763 mmHg 74%
14:00 -10°C° 0 mm 4 m/S 763 mmHg 76%
15:00 -11°C° 0 mm 4 m/S 763 mmHg 79%
16:00 -12°C° 0 mm 4 m/S 762 mmHg 81%
17:00 -11°C° 0 mm 4 m/S 762 mmHg 82%
18:00 -11°C° 0 mm 4 m/S 762 mmHg 83%
19:00 -11°C° 0 mm 4 m/S 762 mmHg 84%
20:00 -10°C° 0 mm 4 m/S 761 mmHg 87%
21:00 -10°C° 0 mm 4 m/S 761 mmHg 90%
22:00 -10°C° 0 mm 4 m/S 761 mmHg 93%
23:00 -9°C° 0 mm 4 m/S 760 mmHg 93%

19 Januar, Dienstag

Zeit Temperatur Niederschläge Wind Luftdruck Luftfeuchtigkeit
00:00 -8°C° 0 mm 5 m/S 760 mmHg 93%
01:00 -7°C° 0 mm 5 m/S 760 mmHg 93%
02:00 -6°C° 0.1 mm 5 m/S 759 mmHg 93%
03:00 -6°C° 0.1 mm 6 m/S 759 mmHg 94%
04:00 -5°C° 0.1 mm 6 m/S 758 mmHg 94%
05:00 -4°C° 0.3 mm 6 m/S 758 mmHg 95%
06:00 -2°C° 0.3 mm 5 m/S 758 mmHg 96%
07:00 -1°C° 0.3 mm 5 m/S 758 mmHg 97%
08:00 0°C° 0.1 mm 5 m/S 758 mmHg 96%
09:00 -1°C° 0.1 mm 6 m/S 758 mmHg 96%
10:00 -1°C° 0.1 mm 6 m/S 758 mmHg 95%
11:00 -1°C° 0 mm 6 m/S 758 mmHg 95%
12:00 -1°C° 0 mm 6 m/S 758 mmHg 95%
13:00 0°C° 0 mm 5 m/S 758 mmHg 95%
14:00 -1°C° 0 mm 6 m/S 757 mmHg 94%
15:00 -2°C° 0 mm 6 m/S 757 mmHg 93%
16:00 -2°C° 0 mm 6 m/S 757 mmHg 92%
17:00 -2°C° 0 mm 7 m/S 756 mmHg 91%
18:00 -2°C° 0 mm 7 m/S 756 mmHg 89%
19:00 -2°C° 0 mm 8 m/S 755 mmHg 87%
20:00 -3°C° 0.3 mm 9 m/S 755 mmHg 90%
21:00 -4°C° 0.3 mm 9 m/S 754 mmHg 92%
22:00 -4°C° 0.3 mm 10 m/S 753 mmHg 94%
23:00 -3°C° 0.8 mm 10 m/S 753 mmHg 95%

20 Januar, Mittwoch

Zeit Temperatur Niederschläge Wind Luftdruck Luftfeuchtigkeit
00:00 -1°C° 0.8 mm 9 m/S 752 mmHg 95%
01:00 0°C° 0.8 mm 9 m/S 752 mmHg 96%
02:00 0°C° 0.6 mm 8 m/S 752 mmHg 96%
03:00 0°C° 0.6 mm 8 m/S 751 mmHg 96%
04:00 +1°C° 0.6 mm 8 m/S 751 mmHg 97%
05:00 0°C° 0.1 mm 7 m/S 751 mmHg 96%
06:00 0°C° 0.1 mm 7 m/S 751 mmHg 95%
07:00 0°C° 0.1 mm 7 m/S 751 mmHg 95%
08:00 0°C° 0 mm 7 m/S 751 mmHg 95%
09:00 0°C° 0 mm 7 m/S 751 mmHg 94%
10:00 0°C° 0 mm 8 m/S 751 mmHg 94%
11:00 0°C° 0 mm 8 m/S 751 mmHg 93%
12:00 0°C° 0 mm 8 m/S 751 mmHg 93%
13:00 0°C° 0 mm 8 m/S 750 mmHg 93%
14:00 0°C° 0.1 mm 7 m/S 750 mmHg 92%
15:00 0°C° 0.1 mm 7 m/S 750 mmHg 90%
16:00 0°C° 0.1 mm 7 m/S 750 mmHg 89%
17:00 0°C° 0.2 mm 7 m/S 749 mmHg 90%
18:00 0°C° 0.2 mm 7 m/S 749 mmHg 92%
19:00 0°C° 0.2 mm 7 m/S 749 mmHg 93%
20:00 0°C° 0.1 mm 7 m/S 749 mmHg 92%
21:00 0°C° 0.1 mm 7 m/S 749 mmHg 92%
22:00 0°C° 0.1 mm 7 m/S 749 mmHg 91%
23:00 0°C° 0 mm 7 m/S 749 mmHg 89%

21 Januar, Donnerstag

Zeit Temperatur Niederschläge Wind Luftdruck Luftfeuchtigkeit
00:00 0°C° 0 mm 7 m/S 749 mmHg 87%
01:00 0°C° 0 mm 7 m/S 749 mmHg 84%
02:00 +1°C° 0 mm 8 m/S 748 mmHg 83%
03:00 +1°C° 0 mm 8 m/S 748 mmHg 81%
04:00 +1°C° 0 mm 8 m/S 748 mmHg 80%
05:00 +1°C° 0 mm 9 m/S 748 mmHg 77%
06:00 0°C° 0 mm 9 m/S 747 mmHg 75%
07:00 0°C° 0 mm 10 m/S 747 mmHg 72%
08:00 0°C° 0 mm 10 m/S 747 mmHg 74%
09:00 +1°C° 0 mm 10 m/S 747 mmHg 75%
10:00 +1°C° 0 mm 10 m/S 747 mmHg 76%
11:00 +1°C° 0 mm 10 m/S 746 mmHg 77%
12:00 +2°C° 0 mm 10 m/S 746 mmHg 78%
13:00 +2°C° 0 mm 10 m/S 746 mmHg 79%
14:00 +2°C° 0.1 mm 9 m/S 746 mmHg 82%
15:00 +1°C° 0.1 mm 9 m/S 747 mmHg 85%
16:00 +1°C° 0.1 mm 9 m/S 747 mmHg 88%
17:00 +1°C° 0.1 mm 8 m/S 747 mmHg 89%
18:00 0°C° 0.1 mm 7 m/S 748 mmHg 89%
19:00 +1°C° 0.1 mm 6 m/S 748 mmHg 90%
20:00 +1°C° 0 mm 6 m/S 749 mmHg 88%
21:00 0°C° 0 mm 7 m/S 749 mmHg 86%
22:00 0°C° 0 mm 7 m/S 749 mmHg 84%
23:00 -1°C° 0 mm 7 m/S 750 mmHg 84%
Mehr zeigen

Wir brauchen deine Erlaubnis

Meteoprog und unser Service Anbieter werden persönliche Daten aufbewahren, so wie Cookies, Geräte Bezeichnung oder ähnliche Technologien von deinem Gerät und Prozess, so wie Persönliche Daten Inhalte und Werbungen, genauso wie social Media und den Verkehr zu analysieren.

  • Aufbewahrung und/oder Zugang zu deiner Geräte Informationen.

    Cookies, Geräte Bezeichnung oder andere Informationen, können aufbewahrt oder Zugang zu deinem Gerät erhalten, für den Grund, der oben angegeben wird.

  • Personalisierte Werbung und Inhalte, Messungen, Einblick in das Publikum und Produkt Entwicklung.

    Werbungen und Inhalte können personalisiert werden, basierend auf ein Profil. Mehr Daten können besser personalisierte Werbungen und Inhalte hinzufügen. Werbung und Inhalte können gezeigt und gemessen werden. Einblicke über das Publikum, welche die Werbung gesehen haben und den Inhalt, können abgeleitet werden. So wie Daten können genutzt werden, um es zu verbessern oder die Benutzer Erfahrung zu verbessern das System und die Software.

Wenn du “Ich stimme zu” klickst, erlaubst du uns, die Cookies zu benutzen die Geräte Bezeichnung, den Web oder ähnliche Technologien zu benutzen. Deine Settings, können in deinem Gerät bei deinem Browser geändert werden.

Für den bestimmten Zweck, berechtigten Interessen beruhen darauf, mehr als auf den Inhalt. Du kannst mehr darüber in unseren Privaten und Cookie Politik lesen.